Weather in Khamidiye

Russia / The Kabardino-Balkar Republic     43°40′15″N   44°22′18″E
temp.,
°C
wind,
m/s
gust,
m/s
humid.,
%
clouds,
%
prec.,
mm/h
press.,
hPa
HPBL,
m
2 march, tue
tue200:00+1ssw118191 0.0 102922
03:00+1ssw228293 0.0 102925
06:000sw228351 0.0 103021
09:00+3wsw226234 0.0 1029272
12:00+7wnw12520 0.0 1027911
15:00+8w12460 0.0 10251056
18:00+6ssw23570 0.0 102522
21:00+3n23713 0.0 102531
3 march, wed
wed300:00+2sse11810 0.0 102422
03:00+1e01820 0.0 102222
06:00+1ne118699 0.0 102122
09:00+3ene1275100 0.0 1020245
12:00+6ene1264100 0.0 1019832
15:00+7sw2256100 0.0 1018912
18:00+4nw697996 0.3 1021747
21:00+3nw598398 0.4 10251000
4 march, thu
thu400:00+1nw3108362 0.0 1027642
03:000w248233 0.0 1028106
06:00−1wsw23833 0.0 102873
09:00+3sw34702 0.0 1028681
12:00+6ssw12540 0.0 1026920
15:00+8sw11430 0.0 10241242
18:00+5ssw11540 0.0 102422
21:00+3ssw11670 0.0 102422
5 march, fri
fri500:00+2nw01720 0.0 102322
03:00+1wsw11750 0.0 102322
06:000sw11740 0.0 102222
09:00+4se22560 0.0 1021269
12:00+9ese33380 0.0 1019763
15:00+11e23350 0.0 1019896
18:00+8ese23510 0.0 102027
21:00+5ese22590 0.0 102122
6 march, sat
sat600:00+4ssw22650 0.0 102022
03:00+3ssw11660 0.0 101922
06:00+2ssw22670 0.0 101922
09:00+7s245314 0.0 1018173
12:00+14se24295 0.0 1015500
15:00+17se452133 0.0 1014845
18:00+12se233499 0.0 101422
21:00+10nne0139100 0.0 101423